Powrót do katalogu

SL-8 DEB

AktywnyLEO
NORAD 21212·DEBRIS·🇷🇺 Russia

Wystrzelony Feb 12, 1991 z Plesetsk Cosmodrome

Loading…

Następne Przeloty (najbliższe 24 godziny)

TLE

ŚwieżeSource: Space-Track

Epoka: Sep 14, 2026, 09:10 UTC

1 21212U 91009BF  26257.38194937 -.00000019  00000-0 -75840-4 0  9993
2 21212  74.1539 225.2588 0231118  98.6373  53.8248 12.06914595562468

Śledź SL-8 DEB w czasie rzeczywistym z AllMySat

Download on the App Store